Location: Broekland
(52.3610°N, 6.2005°E)
Time: 00:46:26
(UTC+00:00)

Meteor 1-19 Rocket - Pass Details

Date: 19 May 2025
Orbit: 805 x 927 km, 81.2° (Epoch: 22 June)

Event Time Altitude Azimuth Distance (km) Brightness Sun altitude
Exits shadow 22:25:41 20° 194° (SSW) 2,004 5.6 -16.2°
Maximum altitude 22:30:02 86° 282° (WNW) 937 4.4 -16.4°
Drops below altitude 10° 22:36:06 10° 13° (NNE) 2,629 7.8 -16.7°
Sets 22:38:34 0° 14° (NNE) 3,565 8.6 -16.7°
